When you browse on this site, cookies collect data to enhance your experience and personalize the content and advertising you see.
Visit our Privacy Policy to learn more. By continuing to use the site, you agree to this use of cookies and data.
  • In Spain
  • List of Countries
  • For 7 days
  • Water Temperature
  • Satellite Maps
  • Weather Map
  • Weather Widgets
  • user-avatar
    Login

    Hourly Weather La Rioja

    Today, 24 July, Wednesday

    Time Temperature Precipitation Wind Pressure Humidity
    00:00 +7°C° 0 mm 1 mps 724 mmHg 59%
    01:00 +7°C° 0 mm 1 mps 724 mmHg 63%
    02:00 +6°C° 0 mm 1 mps 724 mmHg 67%
    03:00 +6°C° 0 mm 1 mps 725 mmHg 68%
    04:00 +6°C° 0 mm 1 mps 725 mmHg 70%
    05:00 +4°C° 0 mm 0 mps 725 mmHg 71%
    06:00 +5°C° 0 mm 0 mps 725 mmHg 69%
    07:00 +5°C° 0 mm 0 mps 725 mmHg 66%
    08:00 +6°C° 0 mm 0 mps 725 mmHg 63%
    09:00 +9°C° 0 mm 1 mps 725 mmHg 56%
    10:00 +11°C° 0 mm 1 mps 725 mmHg 49%
    11:00 +13°C° 0 mm 1 mps 725 mmHg 41%
    12:00 +14°C° 0 mm 1 mps 725 mmHg 39%
    13:00 +14°C° 0 mm 2 mps 724 mmHg 36%
    14:00 +15°C° 0 mm 2 mps 723 mmHg 34%
    15:00 +14°C° 0 mm 3 mps 722 mmHg 34%
    16:00 +14°C° 0 mm 3 mps 722 mmHg 35%
    17:00 +14°C° 0 mm 3 mps 722 mmHg 36%
    18:00 +12°C° 0 mm 3 mps 722 mmHg 41%
    19:00 +12°C° 0 mm 2 mps 722 mmHg 45%
    20:00 +9°C° 0 mm 2 mps 722 mmHg 50%
    21:00 +9°C° 0 mm 1 mps 722 mmHg 55%
    22:00 +9°C° 0 mm 1 mps 722 mmHg 59%
    23:00 +8°C° 0 mm 1 mps 722 mmHg 63%

    Tomorrow, 25 July, Thursday

    Time Temperature Precipitation Wind Pressure Humidity
    00:00 +8°C° 0 mm 1 mps 722 mmHg 66%
    01:00 +7°C° 0 mm 1 mps 721 mmHg 68%
    02:00 +6°C° 0 mm 0 mps 721 mmHg 71%
    03:00 +7°C° 0 mm 1 mps 720 mmHg 70%
    04:00 +6°C° 0 mm 1 mps 720 mmHg 70%
    05:00 +6°C° 0 mm 1 mps 719 mmHg 69%
    06:00 +7°C° 0 mm 1 mps 719 mmHg 70%
    07:00 +7°C° 0 mm 1 mps 719 mmHg 70%
    08:00 +6°C° 0 mm 0 mps 720 mmHg 71%
    09:00 +9°C° 0 mm 1 mps 719 mmHg 62%
    10:00 +11°C° 0 mm 1 mps 719 mmHg 53%
    11:00 +13°C° 0 mm 1 mps 719 mmHg 44%
    12:00 +15°C° 0 mm 1 mps 719 mmHg 41%
    13:00 +16°C° 0 mm 1 mps 718 mmHg 37%
    14:00 +17°C° 0 mm 2 mps 717 mmHg 34%
    15:00 +17°C° 0 mm 2 mps 717 mmHg 34%
    16:00 +17°C° 0 mm 2 mps 716 mmHg 34%
    17:00 +17°C° 0 mm 2 mps 716 mmHg 34%
    18:00 +15°C° 0 mm 2 mps 716 mmHg 41%
    19:00 +13°C° 0 mm 1 mps 717 mmHg 47%
    20:00 +11°C° 0 mm 1 mps 717 mmHg 53%
    21:00 +10°C° 0 mm 1 mps 717 mmHg 55%
    22:00 +8°C° 0 mm 0 mps 717 mmHg 56%
    23:00 +8°C° 0 mm 0 mps 718 mmHg 57%

    Day after tomorrow, 26 July, Friday

    Time Temperature Precipitation Wind Pressure Humidity
    00:00 +8°C° 0 mm 0 mps 718 mmHg 58%
    01:00 +7°C° 0 mm 0 mps 717 mmHg 58%
    02:00 +8°C° 0 mm 1 mps 717 mmHg 59%
    03:00 +8°C° 0 mm 1 mps 717 mmHg 60%
    04:00 +7°C° 0 mm 1 mps 717 mmHg 62%
    05:00 +7°C° 0 mm 1 mps 717 mmHg 63%
    06:00 +8°C° 0 mm 1 mps 718 mmHg 61%
    07:00 +8°C° 0 mm 1 mps 719 mmHg 59%
    08:00 +9°C° 0 mm 1 mps 719 mmHg 56%
    09:00 +11°C° 0 mm 1 mps 720 mmHg 50%
    10:00 +13°C° 0 mm 1 mps 720 mmHg 43%
    11:00 +15°C° 0 mm 2 mps 721 mmHg 36%
    12:00 +16°C° 0 mm 2 mps 720 mmHg 35%
    13:00 +17°C° 0 mm 2 mps 719 mmHg 33%
    14:00 +18°C° 0 mm 2 mps 719 mmHg 31%
    15:00 +18°C° 0 mm 2 mps 719 mmHg 32%
    16:00 +18°C° 0 mm 2 mps 719 mmHg 32%
    17:00 +17°C° 0 mm 2 mps 718 mmHg 33%
    18:00 +16°C° 0 mm 2 mps 719 mmHg 38%
    19:00 +14°C° 0 mm 1 mps 719 mmHg 43%
    20:00 +12°C° 0 mm 1 mps 720 mmHg 48%
    21:00 +12°C° 0 mm 1 mps 720 mmHg 49%
    22:00 +11°C° 0 mm 1 mps 720 mmHg 51%
    23:00 +11°C° 0 mm 1 mps 720 mmHg 52%

    27 July, Saturday

    Time Temperature Precipitation Wind Pressure Humidity
    00:00 +10°C° 0 mm 1 mps 720 mmHg 53%
    01:00 +10°C° 0 mm 1 mps 720 mmHg 54%
    02:00 +9°C° 0 mm 2 mps 720 mmHg 54%
    03:00 +8°C° 0 mm 2 mps 720 mmHg 57%
    04:00 +8°C° 0 mm 2 mps 719 mmHg 60%
    05:00 +7°C° 0 mm 2 mps 719 mmHg 64%
    06:00 +8°C° 0 mm 2 mps 719 mmHg 63%
    07:00 +8°C° 0 mm 2 mps 719 mmHg 63%
    08:00 +8°C° 0 mm 2 mps 720 mmHg 63%
    09:00 +10°C° 0 mm 2 mps 720 mmHg 57%
    10:00 +13°C° 0 mm 2 mps 719 mmHg 51%
    11:00 +15°C° 0 mm 2 mps 719 mmHg 45%
    12:00 +16°C° 0 mm 2 mps 718 mmHg 43%
    13:00 +17°C° 0 mm 2 mps 718 mmHg 41%
    14:00 +17°C° 0 mm 2 mps 717 mmHg 39%
    15:00 +17°C° 0 mm 2 mps 716 mmHg 39%
    16:00 +18°C° 0 mm 1 mps 716 mmHg 39%
    17:00 +18°C° 0 mm 1 mps 716 mmHg 39%
    18:00 +16°C° 0 mm 1 mps 716 mmHg 43%
    19:00 +15°C° 0 mm 1 mps 716 mmHg 47%
    20:00 +13°C° 0 mm 2 mps 717 mmHg 51%
    21:00 +13°C° 0 mm 1 mps 717 mmHg 54%
    22:00 +12°C° 0 mm 1 mps 717 mmHg 56%
    23:00 +12°C° 0 mm 1 mps 717 mmHg 58%

    28 July, Sunday

    Time Temperature Precipitation Wind Pressure Humidity
    00:00 +11°C° 0 mm 1 mps 716 mmHg 64%
    01:00 +10°C° 0 mm 1 mps 716 mmHg 70%
    02:00 +9°C° 0 mm 1 mps 716 mmHg 75%
    03:00 +9°C° 0 mm 1 mps 716 mmHg 76%
    04:00 +9°C° 0 mm 1 mps 715 mmHg 77%
    05:00 +9°C° 0 mm 1 mps 715 mmHg 78%
    06:00 +9°C° 0 mm 1 mps 715 mmHg 78%
    07:00 +8°C° 0 mm 2 mps 715 mmHg 77%
    08:00 +9°C° 0 mm 2 mps 715 mmHg 77%
    09:00 +12°C° 0 mm 2 mps 715 mmHg 70%
    10:00 +13°C° 0 mm 2 mps 715 mmHg 63%
    11:00 +15°C° 0 mm 2 mps 715 mmHg 56%
    12:00 +16°C° 0 mm 2 mps 714 mmHg 53%
    13:00 +17°C° 0 mm 2 mps 714 mmHg 50%
    14:00 +18°C° 0 mm 2 mps 713 mmHg 46%
    15:00 +18°C° 0 mm 2 mps 713 mmHg 46%
    16:00 +18°C° 0 mm 2 mps 713 mmHg 46%
    17:00 +19°C° 0 mm 1 mps 713 mmHg 46%
    18:00 +17°C° 0 mm 2 mps 714 mmHg 51%
    19:00 +15°C° 0 mm 2 mps 714 mmHg 55%
    20:00 +14°C° 0 mm 2 mps 715 mmHg 60%
    21:00 +13°C° 0 mm 2 mps 715 mmHg 62%
    22:00 +13°C° 0 mm 2 mps 715 mmHg 64%
    23:00 +11°C° 0 mm 3 mps 715 mmHg 66%

    29 July, Monday

    Time Temperature Precipitation Wind Pressure Humidity
    00:00 +11°C° 0 mm 3 mps 715 mmHg 70%
    01:00 +10°C° 0 mm 3 mps 715 mmHg 74%
    02:00 +10°C° 0 mm 3 mps 716 mmHg 79%
    03:00 +10°C° 0 mm 2 mps 716 mmHg 80%
    04:00 +9°C° 0 mm 2 mps 715 mmHg 82%
    05:00 +9°C° 0 mm 2 mps 715 mmHg 83%
    06:00 +9°C° 0 mm 2 mps 716 mmHg 81%
    07:00 +9°C° 0 mm 2 mps 716 mmHg 79%
    08:00 +11°C° 0 mm 1 mps 717 mmHg 78%
    09:00 +13°C° 0 mm 1 mps 717 mmHg 69%
    10:00 +15°C° 0 mm 2 mps 718 mmHg 60%
    11:00 +17°C° 0 mm 2 mps 718 mmHg 52%
    12:00 +18°C° 0 mm 2 mps 718 mmHg 49%
    13:00 +19°C° 0 mm 2 mps 717 mmHg 46%
    14:00 +20°C° 0 mm 2 mps 716 mmHg 43%
    15:00 +20°C° 0 mm 2 mps 716 mmHg 43%
    16:00 +21°C° 0 mm 1 mps 716 mmHg 44%
    17:00 +21°C° 0 mm 1 mps 716 mmHg 44%
    18:00 +19°C° 0 mm 1 mps 715 mmHg 50%
    19:00 +16°C° 0 mm 1 mps 715 mmHg 56%
    20:00 +14°C° 0 mm 1 mps 715 mmHg 62%
    21:00 +14°C° 0 mm 1 mps 715 mmHg 63%
    22:00 +14°C° 0 mm 1 mps 715 mmHg 65%
    23:00 +13°C° 0 mm 1 mps 715 mmHg 66%
    Show more